Regional Weather Roundup
Issued by NWS

Home | Current Version | Previous Version | Graphics & Text | Print | Product List | Glossary Off
Versions: 1 2 3 4 5 6 7 8 9 10 11 12 13 14 15 16 17 18 19 20 21 22 23 24 25 26 27 28 29 30 31 32 33 34 35 36 37 38 39 40 41 42 43 44 45 46 47 48 49 50

854
ASUS43 KMKX 230200
RWRWI

WISCONSIN REGIONAL WEATHER ROUNDUP
NATIONAL WEATHER SERVICE MILWAUKEE/SULLIVAN WI
900 PM CDT MON MAY 22 2017

NOTE: "FAIR" INDICATES FEW OR NO CLOUDS BELOW 12,000 FEET WITH NO
SIGNIFICANT WEATHER AND/OR OBSTRUCTIONS TO VISIBILITY.

WIZ001-002-006>008-014>016-023>028-230300-
NORTHWEST WISCONSIN

CITY           SKY/WX    TMP DP  RH WIND       PRES   REMARKS
SUPERIOR ARPT  NOT AVBL
ASHLAND        CLOUDY    51  45  79 S5        29.83R
HAYWARD        CLOUDY    51  46  83 CALM      29.83S
SIREN          CLOUDY    53  43  68 CALM      29.83S
CUMBERLAND     MOCLDY    52  41  66 N5        29.83S
RICE LAKE      MOCLDY    55  44  64 N6        29.84S
CHETEK         PTCLDY    52  47  81 CALM      29.83R
LADYSMITH      CLOUDY    54  48  81 CALM      29.85S
EAU CLAIRE     MOCLDY    57  44  62 NE5       29.81R
MENOMONIE      PTCLDY    57  44  61 N5        29.82R
NEW RICHMOND   PTCLDY    55  44  67 N5        29.82S
OSCEOLA        CLEAR     56  44  63 N3        29.84S
$$

WIZ003>005-009-010-017-018-230300-
NORTH CENTRAL WISCONSIN

CITY           SKY/WX    TMP DP  RH WIND       PRES   REMARKS
MANITOWISH WTR CLOUDY    49  45  84 CALM      29.84S
ARBOR VITAE    CLOUDY    52  44  74 CALM      29.84R
WOODRUFF       CLOUDY    52  44  74 CALM      29.84R
RHINELANDER    CLOUDY    53  41  63 CALM      29.85R
EAGLE RIVER    CLOUDY    51  41  70 CALM      29.84S
LAND O LAKES   CLOUDY    50  43  76 NW3       29.86R
PHILLIPS       CLOUDY    51  46  81 CALM      29.83S
TOMAHAWK       CLOUDY    50  42  74 CALM      29.84S
MEDFORD        PTCLDY    52  42  70 N5        29.82S
MERRILL        PTCLDY    53  41  65 N3        29.84R
$$

WIZ029-030-035-036-043>047-230300-
CENTRAL WISCONSIN

CITY           SKY/WX    TMP DP  RH WIND       PRES   REMARKS
WAUSAU         CLEAR     56  42  59 NE3       29.82R
MOSINEE        NOT AVBL
MARSHFIELD     CLEAR     56  43  61 N5        29.81S
STEVENS POINT  PTCLDY    56  44  62 N5        29.83R
WAUPACA        PTCLDY    62  50  63 CALM      29.82R
WAUTOMA        CLEAR     61  50  67 S6        29.82R
WISC RAPIDS    PTCLDY    56  45  66 N6        29.83R
CAMP DOUGLAS   NOT AVBL
$$

WIZ011>013-019>022-031-037>040-048>050-230300-
NORTHEAST WISCONSIN

CITY           SKY/WX    TMP DP  RH WIND       PRES   REMARKS
ANTIGO         PTCLDY    52  42  68 NW6       29.84R
SHAWANO        CLOUDY    62  44  52 CALM      29.83R
OCONTO         MOCLDY    54  47  78 E5        29.83R
STURGEON BAY   PTCLDY    51  47  86 CALM      29.86R
GREEN BAY      CLOUDY    61  53  75 SW5       29.83R
MANITOWOC      NOT AVBL
APPLETON       PTCLDY    59  46  63 SW9       29.81R
CLINTONVILLE   PTCLDY    61  43  51 N5        29.82R
OSHKOSH        CLEAR     56  50  80 S6        29.82S
$$

WIZ032>034-041-042-053>061-230300-
SOUTHWEST WISCONSIN

CITY           SKY/WX    TMP DP  RH WIND       PRES   REMARKS
LA CROSSE      PTCLDY    59  51  75 N5        29.78F
SPARTA         CLEAR     57  51  79 CALM      29.82R
VIROQUA        MOCLDY    62  49  63 MISG      29.81S
BOSCOBEL       LGT RAIN  62  55  77 SW10      29.82S
PRAIRIE DU CHI CLOUDY    59  54  83 CALM      29.81S
PLATTEVILLE    CLOUDY    61  60  95 S8        29.84S
$$

WIZ056-057-062-063-064-067-068-230300-
SOUTH CENTRAL WISCONSIN

CITY           SKY/WX    TMP DP  RH WIND       PRES   REMARKS
REEDSBURG      PTCLDY    60  52  74 CALM      29.81S
BARABOO/DELLS  PTCLDY    57  50  77 CALM      29.82S
LONE ROCK      CLOUDY    59  54  83 E3        29.82S
MINERAL POINT  CLOUDY    61  59  94 S8        29.84R
MADISON        CLOUDY    61  54  77 S8        29.83S
MIDDLETON      CLOUDY    62  55  77 SW7       29.84S
WATERTOWN      PTCLDY    58  56  94 S6        29.84F
MONROE         CLOUDY    59  54  82 S12G20    29.84S
JANESVILLE     CLOUDY    63  59  88 S9        29.86S
$$

WIZ051-052-058>065-066-070>072-230300-
SOUTHEAST WISCONSIN

CITY           SKY/WX    TMP DP  RH WIND       PRES   REMARKS
MILWAUKEE      CLOUDY    63  52  67 SW3       29.86R
WAUKESHA       MOCLDY    59  52  77 SW5       29.86S
MILWAUKEE/TIMM MOCLDY    61  52  72 CALM      29.86S
RACINE         CLOUDY    65  52  62 SW9       29.88R
KENOSHA        MOCLDY    64  53  67 SW12G23   29.87R
FOND DU LAC    CLOUDY    59  50  72 S7        29.83S
SHEBOYGAN      MOCLDY    58  52  80 S8        29.84S
WEST BEND      CLOUDY    59  54  82 SW3       29.84F
JUNEAU         CLOUDY    58  53  83 SE3       29.85S
$$

LSZ147-162-230300-
LAKE SUPERIOR

STATION/POSITION TIME  TEMP    WIND        PRES    WAVE
                       AIR SEA DIR/SP/G            HT/PER
                 (UTC) (F)     (DEG/KT/KT) (MB)    (FT/S)
W MID LAKE BUOY  0050   41 37  230/  8/ 10 1009.7R   1/ 4
DEVILS ISLAND    0100   50     230/ 12/ 13 1009.7R
SAXON HARBOR     0130   54     190/  3/  5 1009.8S
$$

LMZ867-665-643>646-230300-
LAKE MICHIGAN

STATION/POSITION TIME  TEMP    WIND        PRES    WAVE
                       AIR SEA DIR/SP/G            HT/PER
                 (UTC) (F)     (DEG/KT/KT) (MB)    (FT/S)
CHAMBERS ISLAND  0130   50      CALM  /  1 1009.8S
N MID LAKE BUOY  0050   41 39  130/  2/  4 1011.1R   3/ 5
NORTHPORT PIER   0140   50        CALM     1010.2S
KEWAUNEE LAKESHO 0130   64     220/  4/  7 1009.3R
SHEBOYGAN LAKESH 0100   51     180/ 17/ 18 1010.5R
PORT WASHINGTON  0130   53     170/  3/  6 1011.5F
ATWATER BUOY     0009   49     180/  6/  6 1011.2F
MILWAUKEE LAKESH 0130   51      CALM  /  1   N/A
S MID LAKE BUOY  0050   50 45  180/ 10/ 10 1012.0F   1
KENOSHA   LAKESH 0100   67     230/ 10/ 20 1011.2
$$

TC  - TEMPERATURE IN CELSIUS
VSB - VISIBILITY IN STATUTE MILES
WCI - WIND CHILL INDEX
HX  - HEAT INDEX





USA.gov is the U.S. government's official web portal to all federal, state and local government web resources and services.